Flag for Sudan Weather past 2 weeks in Port Sudan, Sudan

Now
86 °F

Clear.


Feels Like: 92 °F
Forecast: 76 / 104 °F
Wind: 6 mph from Northwest

Location: Jeddah King Abdul Aziz International Airport

Current Time: Sep 19, 2014 at 1:18:11 AM

Latest Report: Sep 19, 2014 at 1:00 AM


Visibility: 10 mi

Pressure: 29.71 "Hg

Humidity: 62%

Dew point: 72 °F

Location of Port SudanLocation

Historic Weather in Port Sudan — Graph

°F

Port Sudan temperature yesterday

Maximum temperature yesterday: 100 °F (at 1:00 PM)
Minimum temperature yesterday: 82 °F (at 6:00 AM)
Average temperature yesterday: 90 °F

Past Weeks' High & Low Weather Summary

 TemperatureHumidityPressure
High100 °F (Sep 8, 12:00 PM)79% (Sep 6, 2:00 AM)29.77 "Hg (Sep 6, 2:00 AM)
Low82 °F (Sep 4, 5:00 AM)29% (Sep 17, 12:00 PM)29.56 "Hg (Sep 4, 5:00 PM)
Average90 °F54%29.69 "Hg
* Reported Midnight between Sep 3 and Sep 4 — Midnight between Sep 18 and Sep 19, Port Sudan, Weather by CustomWeather, © 2014

Note: Actual official high and low records may vary slightly from our data, if they occured in-between our weather recording intervals... More about our weather records

Advertising

Port Sudan weather history for previous 24 hours

 ConditionsComfort  
Time TempWeatherWind HumidityBarometerVisibility
12:00 AM
Sep 19
88 °FClear.7 mph62%29.71 "Hg10 mi
11:00 PM
Sep 18
88 °FClear.8 mph62%29.74 "Hg10 mi
10:00 PM90 °FClear.12 mph52%29.74 "Hg10 mi
9:00 PM90 °FClear.12 mph52%29.74 "Hg10 mi
8:00 PM91 °FClear.12 mph46%29.71 "Hg10 mi
7:00 PM91 °FClear.15 mph41%29.71 "Hg10 mi
6:00 PM93 °FSunny.14 mph39%29.68 "Hg10 mi
5:00 PM97 °FSunny.18 mph32%29.65 "Hg10 mi
4:00 PM97 °FSunny.17 mph32%29.65 "Hg10 mi
3:00 PM97 °FSunny.15 mph42%29.65 "Hg10 mi
1:00 PM100 °FSunny.13 mph37%29.68 "Hg10 mi
12:00 PM99 °FSunny.12 mph39%29.68 "Hg10 mi
11:00 AM97 °FSunny.12 mph42%29.71 "Hg10 mi
10:00 AM93 °FSunny.9 mph47%29.71 "Hg10 mi
9:00 AM88 °FSunny.7 mph59%29.71 "Hg10 mi
8:00 AM86 °FSunny.9 mph62%29.71 "Hg10 mi
7:00 AM84 °FScattered clouds.7 mph66%29.71 "HgN/A
6:00 AM82 °FPassing clouds.5 mph66%29.71 "HgN/A
5:00 AM84 °FPassing clouds.3 mph62%29.68 "HgN/A
4:00 AM84 °FPassing clouds.7 mph55%29.68 "HgN/A
3:00 AM84 °FPassing clouds.7 mph55%29.68 "HgN/A
2:00 AM84 °FPassing clouds.7 mph55%29.68 "HgN/A
1:00 AM86 °FPassing clouds.7 mph49%29.71 "HgN/A
Weather by CustomWeather, © 2014

See weather overviewHow to use our weather pages